Simultaneous Nadir Overpasses (SNOs) Predictions

Prediction of SNOs between AQUA and METOP-C Satellite Orbit:

Table of predicted SNOs for the next 14.0 days since TLE Epoch: 11/1/2019
Index Date (AQUA) Time (AQUA) Lat,Lon (AQUA) SZA (AQUA ) Date (METOP-C) Time (METOP-C) Lat,Lon (METOP-C) SZA (METOP-C ) Distance(km) Time Diff (sec)
1 11/02/2019 21:47:36 73.53,-152.09 88.31 11/02/2019 21:46:25 73.49,-153.09 88.28 32.08 71
2 11/02/2019 22:37:07 -73.78, 15.01 91.43 11/02/2019 22:37:01 -73.78, 14.91 91.42 3.05 6
3 11/02/2019 23:26:36 73.89,-177.60 88.70 11/02/2019 23:27:39 73.87,-177.55 88.68 3.33 63
4 11/05/2019 17:21:54 73.74, -86.09 89.39 11/05/2019 17:20:41 73.76, -86.05 89.42 3.34 73
5 11/05/2019 18:11:22 -73.83, 81.35 90.51 11/05/2019 18:11:22 -73.80, 81.37 90.53 2.65 0
6 11/05/2019 19:00:50 73.89,-111.15 89.57 11/05/2019 19:02:00 73.89,-111.08 89.57 2.08 70
7 11/08/2019 12:56:08 73.74, -19.66 90.23 11/08/2019 12:55:03 73.74, -19.70 90.24 1.06 65
8 11/08/2019 13:45:36 -73.83, 147.78 89.67 11/08/2019 13:45:43 -73.83, 147.84 89.67 1.77 7
9 11/08/2019 14:35:07 74.05, -45.07 90.57 11/08/2019 14:36:18 74.07, -44.25 90.58 25.16 71
10 11/11/2019 08:30:21 73.76, 46.75 91.05 11/11/2019 08:29:23 73.77, 46.77 91.06 1.30 58
11 11/11/2019 09:19:49 -73.85,-145.81 88.86 11/11/2019 09:20:03 -73.85,-145.70 88.85 3.17 14
12 11/11/2019 10:09:25 74.33, 20.74 91.65 11/11/2019 10:10:33 74.34, 22.84 91.65 63.21 68
13 11/14/2019 04:04:35 73.78, 113.14 91.83 11/14/2019 04:03:44 73.79, 113.24 91.85 3.44 51
14 11/14/2019 04:54:02 -73.82, -79.30 88.13 11/14/2019 04:54:25 -73.82, -79.36 88.12 1.95 23




NCC Satellite Simultaneous Nadir Overpasses (SNOs) Prediction Service
